www.pogodaiklimat.ru

Погода и климат >> Архив погоды >> Малайзия >> Куала-Лумпур аэропорт


ПОГОДА в Куала-Лумпур аэропорту

  • Прогноз погоды в Куала-Лумпур аэропорту
  • Монитор погоды в Куала-Лумпур аэропорту

АРХИВ ПОГОДЫ в Куала-Лумпур аэропорту

Время (UTC), дата Ветер
(напр.,м/с)
 
Видим.   Явления Облачность Т
(С)
Тd
(С)
f
(%)
Тe
(С)
Тes
(С)
Комфортность P
(гПа)
Po
(гПа)
Тmin
(С)
Tmax
(С)
R
(мм)
R24
(мм)
S
(см)
06 15.08 Ю 2 7000 м мгла {дождь} 9/4 500 м
[Cb cap Ac lent Ci sp]
+29.6 +24.7 75 +42 +49 опасность
перегрева
1011.5 1009.6 2
09 15.08 Ю 2 9000 м мгла 9/4 500 м
[Cb cap Ac lent Cs]
+28.4 +24.4 79 +40 +42 очень
душно
1010.1 1008.2
12 15.08 В 1 8000 м в посл. час дождь {гроза} 9/3 900 м
[Sc Ac lent Ci sp]
+23.9 +23.0 95 +32 +32 очень
душно
1010.2 1008.3 +30.6 10
15 15.08 С 2 7000 м дымка 9/3 <50 м
[Sc Ac trans Ci sp]
+23.9 +23.2 96 +32 +32 очень
душно
1012.4 1010.5
18 15.08 штиль 0 7000 м дымка 9/1 <50 м
[Sc Ac lent Ci sp]
+23.7 +23.0 96 +31 +31 очень
душно
1011.0 1009.1
21 15.08 В 2 7000 м мгла 9/1 900 м
[Sc Ac lent Ci sp]
+23.9 +23.1 95 +32 +32 очень
душно
1010.4 1008.5
00 16.08 СВ 1 8000 м мгла 9/1 200 м
[Sc Ac lent Ci fib]
+24.7 +23.4 92 +33 +34 очень
душно
1011.6 1009.7 +23.3 12
03 16.08 Ю 3 8000 м мгла 9/4 540 м
[Cu med, cong Ac lent Ci fib]
+29.6 +24.4 74 +42 +46 опасность
перегрева
1012.8 1010.9
06 16.08 Ю 5 8000 м мгла 9/1 540 м
[Cu med, cong Ac lent Ci fib]
+30.2 +24.6 72 +43 +49 опасность
перегрева
1011.2 1009.3
09 16.08 Ю 4 9000 м мгла 9/3 500 м
[Cb calv Ac lent Ci fib]
+30.3 +25.0 73 +43 +45 опасность
перегрева
1008.9 1007.0
12 16.08 ЮВ 3 8000 м мгла 9/1 900 м
[Sc Ac lent Ci sp]
+28.4 +24.5 79 +40 +40 очень
душно
1009.8 1007.9 +31.1
15 16.08 В 1 7000 м мгла 8/1 900 м
[Sc Ac trans Ci sp]
+27.2 +24.7 86 +39 +39 очень
душно
1012.0 1010.1
18 16.08 ЮВ 2 6000 м мгла 8/1 900 м
[Sc Ac trans Ci sp]
+26.5 +23.9 86 +37 +37 очень
душно
1010.9 1009.0
21 16.08 В 1 6000 м мгла 9/1 900 м
[Sc Ac trans Ci sp]
+25.8 +23.7 88 +35 +35 очень
душно
1010.6 1008.7
00 17.08 штиль 0 5000 м мгла 9/4 900 м
[Cb cap Ac lent Ci sp]
+25.5 +24.2 93 +35 +36 очень
душно
1011.4 1009.5 +24.7
03 17.08 ЮВ 4 5000 м мгла 9/3 500 м
[Cb cap Ac lent Ci sp]
+29.7 +25.4 78 +44 +48 опасность
перегрева
1012.3 1010.4
06 17.08 ЮВ 5 5000 м мгла 9/3 500 м
[Cb cap Ac lent Ci sp]
+32.4 +24.2 62 +45 +49 опасность
перегрева
1009.7 1007.8
09 17.08 ЮВ 5 7000 м мгла 9/1 900 м
[Sc Ac und Ci sp]
+29.5 +24.9 76 +42 +44 опасность
перегрева
1008.2 1006.3
12 17.08 ЮВ 2 6000 м мгла 8/1 900 м
[Sc Ac trans Ci sp]
+28.1 +24.5 81 +40 +40 очень
душно
1009.5 1007.6 +33.3
15 17.08 Ю 1 4000 м мгла 9/1 900 м
[Sc Ac und Ci sp]
+26.1 +24.1 89 +36 +36 очень
душно
1010.6 1008.7
18 17.08 СВ 2 5000 м мгла 9/1 900 м
[Sc Ac und Ci fib]
+26.1 +23.7 87 +36 +36 очень
душно
1010.5 1008.6
21 17.08 штиль 0 5000 м мгла 9/1 900 м
[Sc Ac As Ci fib]
+25.5 +23.9 91 +35 +35 очень
душно
1009.7 1007.8
00 18.08 В 2 5000 м мгла 9/1 200 м
[Sc Ac As Ci fib]
+26.0 +23.9 88 +36 +36 очень
душно
1011.4 1009.5 +25.3
03 18.08 В 3 7000 м мгла 9/1 540 м
[Cu med, cong Ac lent Ci sp]
+31.7 +23.8 63 +43 +50 опасность
перегрева
1012.4 1010.5
06 18.08 Ю 4 6000 м мгла 9/4 540 м
[Cu hum Ac lent Ci sp]
+32.2 +24.9 65 +45 +51 опасность
перегрева
1010.2 1008.3
09 18.08 Ю 5 6000 м осадки на расстоянии 9/4 500 м
[Cb cap Ac lent Ci sp]
+32.2 +24.0 62 +44 +45 опасность
перегрева
1008.0 1006.1
12 18.08 ЮВ 2 7000 м мгла 9/1 900 м
[Sc Ac lent Ci sp]
+28.8 +24.2 76 +40 +40 очень
душно
1010.3 1008.4 +33.1
15 18.08 С 1 7000 м мгла 9/1 900 м
[Sc Ac und Ci sp]
+27.2 +23.8 82 +37 +37 очень
душно
1012.1 1010.2
18 18.08 ЮВ 1 6000 м зарница 9/1 500 м
[Cb cap Ac lent Ci sp]
+25.7 +23.6 88 +35 +35 очень
душно
1011.3 1009.4
21 18.08 штиль 0 5000 м мгла 9/4 900 м
[Sc Ac lent Ci sp]
+24.9 +23.8 94 +34 +34 очень
душно
1011.2 1009.3
00 19.08 штиль 0 6000 м мгла 9/4 50 м
[Cb cap Ac lent Ci sp]
+25.2 +23.9 93 +35 +35 очень
душно
1012.3 1010.4 +24.9
03 19.08 ЮВ 3 9000 м мгла 9/3 540 м
[Cu hum Ac lent Ci sp]
+30.2 +23.6 68 +41 +47 опасность
перегрева
1012.3 1010.4
06 19.08 Ю 4 9000 м мгла 9/3 540 м
[Cu med, cong Ac lent Ci sp]
+31.2 +24.3 67 +43 +50 опасность
перегрева
1010.4 1008.5
09 19.08 Ю 4 9000 м мгла 8/1 540 м
[Cu hum Ac trans Ci sp]
+31.1 +23.8 65 +42 +45 опасность
перегрева
1008.2 1006.3
12 19.08 ЮВ 3 8000 м мгла 9/1 900 м
[Sc Ac trans Ci sp]
+28.7 +23.4 73 +39 +39 очень
душно
1009.2 1007.3 +32.4
15 19.08 Ю 1 8000 м мгла 8/1 900 м
[Sc Ac trans Ci fib]
+26.9 +23.7 83 +37 +37 очень
душно
1010.7 1008.8
18 19.08 ЮВ 2 7000 м мгла 9/1 900 м
[Sc Ac lent Ci sp]
+26.8 +23.3 81 +36 +36 очень
душно
1010.0 1008.1
21 19.08 СВ 2 6000 м мгла 9/1 900 м
[Sc Ac lent Ci sp]
+25.6 +23.5 88 +35 +35 очень
душно
1009.4 1007.5
00 20.08 штиль 0 5000 м мгла 9/1 <50 м
[Cu Sc Ac As Ci sp]
+26.1 +24.0 88 +36 +37 очень
душно
1010.4 1008.5 +25.2
03 20.08 ЮВ 3 8000 м мгла 9/3 540 м
[Cu hum Ac trans Ci fib]
+30.7 +23.9 67 +42 +47 опасность
перегрева
1010.5 1008.6
06 20.08 Ю 3 7000 м мгла 9/1 540 м
[Cu hum Ac trans Ci fib]
+32.4 +24.5 63 +45 +54 опасность
перегрева
1008.9 1007.0
09 20.08 Ю 3 9000 м мгла 8/3 540 м
[Cu hum Ac trans Ci fib]
+31.0 +23.5 64 +42 +44 опасность
перегрева
1006.9 1005.0
12 20.08 Ю 1 9000 м мгла 8/1 900 м
[Sc Ac trans Ci fib]
+28.9 +24.1 75 +40 +40 очень
душно
1007.7 1005.8 +32.8
15 20.08 ЮВ 2 7000 м мгла 8/1 900 м
[Sc Ac trans Ci sp]
+27.1 +24.2 84 +38 +38 очень
душно
1009.0 1007.1
18 20.08 ЮВ 3 9000 м зарница 8/1 500 м
[Cb cap Ac trans Ci sp]
+27.2 +24.5 85 +38 +38 очень
душно
1008.8 1006.9
21 20.08 ЮЗ 2 7000 м гроза без осадков 9/1 500 м
[Cb cap Ac trans Ci sp]
+25.3 +23.9 92 +35 +35 очень
душно
1008.7 1006.8
00 21.08 штиль 0 8000 м мгла {гроза} 9/3 500 м
[Cb cap Ac lent Ci sp]
+25.8 +23.7 88 +35 +36 очень
душно
1010.5 1008.6 +24.9
03 21.08 ЮЗ 3 10 км мгла 9/4 500 м
[Cb cap Ac lent Ci sp]
+28.8 +23.8 74 +39 +44 очень
душно
1011.7 1009.8
06 21.08 ЮЗ 3 9000 м мгла 9/3 500 м
[Cb cap Ac lent Ci sp]
+30.7 +23.7 66 +42 +49 опасность
перегрева
1009.8 1007.9
09 21.08 ЮЗ 3 9000 м гроза без осадков 9/4 500 м
[Cb cap Ac lent Ci sp]
+29.4 +24.6 75 +42 +43 опасность
перегрева
1008.4 1006.5
12 21.08 С 2 8000 м мгла {гроза} 9/3 900 м
[Sc Ac lent Ci fib]
+25.8 +23.1 85 +34 +34 очень
душно
1009.7 1007.8 +31.6
15 21.08 СВ 2 8000 м мгла 8/1 900 м
[Sc Ac lent Ci fib]
+25.2 +23.2 89 +34 +34 очень
душно
1011.5 1009.6
18 21.08 С 1 8000 м мгла 8/1 900 м
[Sc Ac lent Ci fib]
+24.8 +23.2 91 +33 +33 очень
душно
1010.8 1008.9
21 21.08 С 1 7000 м мгла 9/1 900 м
[Sc Ac lent Ci fib]
+24.3 +23.1 93 +32 +32 очень
душно
1010.2 1008.3
00 22.08 В 1 6000 м мгла 9/3 500 м
[Cb cap Ac lent Ci fib]
+25.0 +23.1 89 +33 +34 очень
душно
1011.7 1009.8 +24.2
03 22.08 Ю 2 6000 м осадки на расстоянии 9/1 500 м
[Cb cap Ac lent Ci sp]
+30.0 +23.2 67 +40 +48 очень
душно
1012.5 1010.6

 

Местоположение метеостанции Куала-Лумпур аэропорт (Малайзия): широта 2.72 долгота 101.70 высота над уровнем моря 17 м.

В архиве по умолчанию представлена погода в Куала-Лумпур аэропорту за последнюю неделю. Архивные данные за месяц целиком и за предыдущие месяцы, начиная с января 2011 года, Вы можете получить, выбрав интересующий диапазон дат из раскрывающегося списка и нажав кнопку "Ввод!".


*Определитесь, кто Вы:
робот инопланетянин человек

Внимание! Время в таблицах - всемирное. Для получения местного времени необходимо прибавить поправку, которая равна 7 ч.

Смотрите также архив погоды в соседних городах и на ближайших метеорологических станциях:

Погода в Куала-Лумпуре (Малайзия) (48 км)
Погода в Малакке (Малайзия) (79 км)
Погода на Нагорье Кэмерон (Малайзия) (198 км)
Погода в Ситаване (Малайзия) (200 км)
Погода в Куантане (Малайзия) (205 км)
Погода в Ипохе (Малайзия) (216 км)
Погода в Аэропорту Сеная (Малайзия) (250 км)
Погода в Пеканбару (Индонезия) (252 км)
Погода в Сингапуре (Сингапур) (295 км)
Погода в Аэропорту Ханга Надима (Индонезия) (322 км)

Пояснения к столбцам:

Ветер - указаны скорость ветра в м/с - средняя за 10 мин, порывы в срок и между сроками (в фигурных скобках) и направление, откуда дует ветер: С - северный, СВ - северо-восточный, В - восточный, ЮВ - юго-восточный, Ю - южный, ЮЗ - юго-западный, З - западный, СЗ - северо-западный.
Видимость - горизонтальная дальность видимости в метрах или километрах. При видимости от 1 до 10 км при отсутствии осадков обычно наблюдается дымка, при ухудшении видимости до 1 км и менее - туман. В сухую погоду видимость может ухудшаться дымом, пылью или мглою.
Явления - указаны атмосферные явления, наблюдавшиеся в срок или в последний час перед сроком; фигурными скобками обозначены явления, наблюдавшиеся между сроками (за 1-3 часа до срока); квадратными скобками обозначены град или гололедные отложения с указанием их диаметра в мм.
Облачность - указаны через наклонную черту общая и нижняя облачность в баллах и высота нижней границы облаков в метрах; квадратными скобками обозначены формы облаков: Ci - перистые, Cs - перисто-слоистые, Cc - перисто-кучевые, Ac - высококучевые, As - высокослоистые, Sc - слоисто-кучевые, Ns - слоисто-дождевые, Cu - кучевые, Cb - кучево-дождевые. Подробнее классификацию облаков см. в Атласе облаков (PDF).
T - Температура воздуха - температура, измеренная на высоте 2 м над землей.
Td - Температура точки росы - температура, при понижении до которой содержащийся в воздухе водяной пар достигнет насыщения.
f - Относительная влажность воздуха - влажноcть воздуха, измеренная на высоте 2 м над землей.
Te - Эффективная температура - температура, которую ощущает одетый по сезону человек в тени. Характеристика душности погоды. При расчете учитывается влияние влажности воздуха и скорости ветра на теплоощущения человека.
Tes - Эффективная температура на солнце - температура, которую ощущает человек, с поправкой на солнечный нагрев. Характеристика знойности погоды. Зависит от высоты солнца над горизонтом, облачности и скорости ветра. Ночью, в пасмурную погоду, а также при ветре 12 м/с и более поправка равна нулю.
P - Атмосферное давление - приведенное к уровню моря атмосферное давление.
Po - Атмосферное давление - измеренное на уровне метеостанции атмосферное давление.
Tmin - Минимальная температура - минимум температуры воздуха на высоте 2 м над землей.
Tmax - Максимальная температура - максимум температуры воздуха на высоте 2 м над землей.
R - Количество осадков - Количество выпавших осадков за период времени, мм. При наведении курсора мыши на число - период времени, за который выпало указанное количество осадков.
R24 - Количество осадков - Количество выпавших осадков за 24 часа, мм.
S - Снежный покров - Высота снежного покрова, см. При наведении курсора мыши на число - состояние снежного покрова и степень покрытия местности в баллах.